SCP
0 0 0 0 0 0 0 0 0 0 0 0 0 0 0 0 0 0 0 0 0 0 0 0 0 0 0 0 0 0 0 0 0 0 0 0 0 0 0 0 0 0 0
0 0 0 0 0 0 0 0 0 0 0 0 0 0 0 0 0 0 0 0 0 0 0 0 0 0 0 0 0 0 0 0 0 0 0 0 0 0 0 0 0 0 0
0 0 0 0 0 0 0 0 0 0 0 0 0 0 0 0 0 0 0 0 0 0 0 0 0 0 0 0 0 0 0 0 0 0 0 0 0 0 0 0 0 0 0
0 0 0 0 0 0 0 0 0 0 0 0 0 0 0 0 0 0 0 0 0 0 0 0 0 0 0 0 0 0 0 0 0 0 0 0 0 0 0 0 0 0 0
0 0 0 0 0 0 0 0 0 0 0 0 0 0 0 0 0 0 0 0 0 0 0 0 0 0 0 0 0 0 0 0 0 0 0 0 0 0 0 0 0 0 0
0 0 0 0 0 0 0 0 0 0 0 0 0 0 0 0 0 0 0 0 0 0 0 0 0 0 0 0 0 0 0 0 0 0 0 0 0 0 0 0 0 0 0
0 0 0 0 0 0 0 0 0 0 0 0 0 0 0 0 0 0 0 0 0 0 0 0 0 0 0 0 0 0 0 0 0 0 0 0 0 0 0 0 0 0 0
0 0 0 0 0 0 0 0 0 0 0 0 0 0 0 0 0 0 0 0 0 0 0 0 0 0 0 0 0 0 0 0 0 0 0 0 0 0 0 0 0 0 0
0 -0 0 0 0 0 0 0 0 0 0 0 0 0 0 0 0 0 0 0 0 0 0 0 0 0 0 0 0 0 0 0 0 0 0 0 0 0 0 0 0 0 0
-0 -0 -0 -0 -0 0 0 0 0 0 0 0 0 0 0 0 0 0 0 0 0 0 0 0 0 0 0 0 0 0 0 0 0 0 0 0 0 0 0 0 0 0 0
-0 -0 -0 -0 -0 -0 0 0 0 0 0 0 0 0 0 0 0 0 0 0 0 0 0 0 0 0 0 0 0 0 0 0 0 0 0 0 0 0 0 0 0 0 0
0 0 0 -0 -0 -0 0 0 0 0 0 0 0 0 0 0 0 0 0 0 0 0 0 0 0 0 0 0 0 0 0 0 0 0 0 0 0 0 0 0 0 0 0
0 0 0 0 0 0 0 0 -0 -0 0 0 0 0 0 0 0 0 0 0 0 0 0 0 0 0 0 0 0 0 0 0 0 0 0 0 0 0 0 0 0 0 0
0 0 0 0 0 0 0 0 0 0 0 0 0 0 0 0 0 0 0 0 0 0 0 0 0 0 0 0 0 0 0 0 0 0 0 0 0 0 0 0 0 0 0
0 0 0 0 0 0 0 0 0 0 0 0 0 0 0 0 0 0 0 0 0 0 0 0 0 0 0 0 0 0 0 0 0 0 0 0 0 0 0 0 0 0 0
0 0 0 0 0 0 0 0 0 0 0 0 0 0 0 0 0 0 0 0 0 0 0 0 0 0 0 0 0 0 0 0 0 0 0 0 0 0 0 0 0 0 0
0 0 0 0 0 0 0 0 0 0 0 0 0 0 0 0 0 0 0 0 0 0 0 0 0 0 0 0 0 0 0 0 0 0 0 0 0 0 0 0 0 0 0
1 1 0 0 0 0 0 0 0 0 0 0 0 0 0 0 0 0 0 0 0 0 0 0 0 0 0 0 0 0 0 0 0 0 0 0 0 0 0 0 0 0 0
1 1 1 0 0 0 0 0 0 0 0 0 0 0 0 0 0 0 0 0 0 0 0 0 0 0 0 0 0 0 0 0 0 0 0 0 0 0 0 0 0 0 0
1 1 0 0 0 0 0 0 0 0 0 0 0 0 0 0 0 0 0 0 0 0 0 0 0 0 0 0 0 0 0 0 0 0 0 0 0 0 0 0 0 0 0
1 1 0 0 0 0 0 0 0 0 0 0 0 0 0 0 0 0 0 0 0 0 0 0 0 0 0 0 0 0 0 0 0 0 0 0 0 0 0 0 0 0 0
1 1 0 0 0 0 0 0 0 0 0 0 0 0 0 0 0 0 0 0 0 0 0 0 0 0 0 0 0 0 0 0 0 0 0 0 0 0 0 0 0 0 0
1 1 1 0 0 0 0 0 0 0 0 0 0 0 0 0 0 0 0 0 0 0 0 0 0 0 0 0 0 0 0 0 0 0 0 0 0 0 0 0 0 0 0
1 1 1 0 0 0 0 0 0 0 0 0 0 0 0 0 0 0 0 0 0 0 0 0 0 0 0 0 0 0 0 0 0 0 0 0 0 0 0 0 0 0 0
1 1 1 1 0 0 0 0 0 0 0 0 0 0 0 0 0 0 0 0 0 0 0 0 0 0 0 0 0 0 0 0 0 0 0 0 0 0 0 0 0 0 0
1 1 1 1 0 0 0 0 0 0 0 0 0 0 0 0 0 0 0 0 0 0 0 0 0 0 0 0 0 0 0 0 0 0 0 0 0 0 0 0 0 0 0
Wind_Speed
2 3 10 12 13 13 13 14 14 15 15 16 17 17 17 17 18 18 18 18 18 18 18 18 18 18 18 18 19 19 19 19 19 18 18 17 17 17 16 16 15 11 16
5 5 11 12 13 13 13 14 14 15 15 16 16 16 17 17 17 17 17 17 17 17 17 17 17 17 17 17 18 18 18 18 17 17 17 15 16 16 16 15 14 10 15
7 6 9 12 13 13 13 13 14 14 15 15 15 16 16 16 16 16 16 16 16 17 17 16 16 16 16 16 16 16 16 16 16 16 15 8 10 15 15 15 15 15 14
8 6 8 12 13 13 13 13 13 14 14 14 15 15 15 15 15 15 15 16 15 15 15 15 15 15 14 14 14 14 14 14 15 15 7 6 7 14 15 15 15 14 14
7 6 8 13 13 13 13 13 13 14 14 14 14 14 15 15 15 15 15 15 15 14 14 14 13 13 13 12 12 11 11 11 13 11 6 5 6 13 14 14 14 14 14
7 6 8 13 13 13 13 13 13 13 13 13 13 14 14 14 14 14 14 14 14 13 12 12 12 11 11 10 10 9 9 10 10 7 6 6 5 12 14 14 14 13 13
8 5 7 13 13 13 13 12 13 13 13 13 13 13 13 13 13 13 13 13 13 12 11 11 10 10 9 9 8 8 7 9 7 6 6 5 6 12 13 13 13 13 12
10 7 7 12 13 12 12 12 12 12 12 12 12 12 12 12 12 12 12 12 12 11 10 9 9 8 7 7 7 6 7 8 8 7 6 5 9 12 13 13 12 12 12
9 7 5 6 8 11 12 12 12 11 11 11 11 11 11 11 11 10 10 10 10 9 8 8 7 6 5 5 5 4 5 8 6 5 8 5 10 12 13 13 12 12 11
7 7 6 5 4 4 6 10 11 11 11 10 10 10 9 9 9 9 8 8 9 8 7 6 5 4 4 3 3 3 5 7 4 5 4 6 12 13 13 12 12 11 11
8 6 6 5 5 4 4 8 8 9 9 8 7 8 6 3 3 4 6 7 7 7 6 5 3 2 1 1 1 2 3 3 4 4 4 9 13 13 13 12 11 11 10
9 7 6 6 6 5 5 4 3 3 3 3 2 3 2 2 2 3 4 6 6 5 4 4 3 2 1 0 0 1 1 3 4 4 5 12 13 13 12 12 11 11 10
9 8 7 7 6 5 3 4 2 1 2 2 3 3 2 2 1 1 1 1 2 3 1 2 2 1 1 1 1 1 2 3 2 3 6 13 12 13 12 12 11 11 10
8 8 7 7 6 5 5 4 3 2 2 2 3 4 3 2 1 2 1 1 1 1 2 2 1 2 2 3 2 2 3 3 3 2 5 12 12 12 12 12 11 11 11
8 7 7 7 6 6 5 3 4 3 3 3 3 3 4 3 2 2 2 1 2 2 2 2 2 3 2 2 2 3 4 4 4 4 3 11 12 12 12 12 12 11 11
8 7 6 6 6 6 4 3 3 3 3 3 3 4 4 3 3 3 2 2 2 2 2 3 2 2 1 1 1 3 4 4 4 5 4 6 11 11 11 12 12 12 11
9 7 6 6 5 5 4 3 3 3 3 3 3 3 4 4 4 3 2 2 2 2 2 1 1 1 1 1 1 1 2 3 4 5 5 4 5 9 11 11 11 11 11
9 7 6 6 5 4 3 3 2 2 3 2 2 2 3 3 3 3 2 1 1 1 1 1 1 1 1 1 0 1 1 2 4 4 4 4 4 4 7 11 10 10 11
9 7 6 5 5 4 3 2 2 2 2 2 2 2 2 3 3 3 2 2 1 1 1 1 1 2 2 1 1 1 1 1 2 3 4 4 4 4 4 7 10 10 11
8 7 6 5 4 4 3 2 1 1 1 1 2 2 3 2 2 2 1 1 1 1 0 0 1 1 1 2 1 0 1 1 1 2 3 3 3 4 4 4 4 7 11
7 7 6 6 4 3 2 2 1 1 0 1 1 2 3 2 2 2 1 1 1 1 1 1 1 1 1 2 1 1 2 1 0 1 1 2 3 3 3 3 3 3 4
8 7 7 6 5 4 3 2 2 2 1 2 1 1 2 2 2 2 2 1 1 1 0 0 1 1 1 2 2 1 1 3 3 1 0 1 1 1 1 3 2 3 3
8 8 7 6 6 5 4 2 1 1 1 1 0 0 1 2 2 2 2 2 1 1 1 1 1 2 2 1 2 3 3 2 1 2 2 1 1 1 0 0 1 1 3
8 7 6 7 6 5 4 3 4 3 2 2 1 1 0 1 1 1 1 2 1 1 0 1 1 1 2 1 1 1 2 4 3 0 2 2 2 2 1 1 1 1 1
8 7 6 6 5 5 5 5 4 3 2 1 1 2 1 1 1 1 1 1 1 0 0 0 0 0 1 2 2 1 1 1 2 3 1 1 2 2 1 1 1 1 1
6 6 5 6 5 5 5 5 5 4 3 3 2 1 1 0 1 1 1 1 1 1 1 1 1 1 0 1 1 1 2 2 2 2 2 2 0 1 1 1 1 1 1
Wind_Direction
112 110 103 98 93 93 92 91 88 87 89 91 92 92 92 93 94 95 95 96 97 99 100 100 102 102 103 104 106 109 111 113 114 115 116 118 120 119 116 115 112 112 115
143 122 109 104 100 96 94 92 91 89 89 92 93 94 94 94 94 95 96 97 98 100 101 102 103 103 103 105 107 110 113 114 114 115 115 117 119 119 118 117 115 118 119
130 118 110 107 104 101 97 95 93 92 92 93 94 95 95 96 96 98 99 99 99 99 101 102 103 103 105 106 108 112 114 115 115 113 110 104 113 118 119 120 120 120 120
128 119 115 112 108 105 101 98 96 96 95 94 95 97 97 98 98 99 102 102 102 102 102 103 104 105 107 108 109 111 115 118 118 116 107 108 114 119 119 121 122 122 122
121 118 122 116 113 109 106 103 101 100 99 98 99 99 100 101 102 102 103 104 104 105 105 105 107 107 107 106 106 109 114 116 121 116 109 105 110 123 123 124 125 124 124
121 121 126 120 117 113 110 108 106 105 104 104 103 103 104 105 105 107 107 108 108 108 107 107 108 107 108 106 105 106 109 117 117 112 113 116 120 129 129 128 128 128 129
129 127 128 125 122 118 115 113 110 109 109 108 108 106 108 110 111 110 111 113 114 113 112 110 109 107 105 104 105 104 103 119 122 125 125 126 131 132 132 131 130 131 132
137 134 131 130 127 124 121 118 116 115 113 113 113 111 111 112 112 113 115 116 118 118 116 113 113 109 103 99 100 104 107 121 124 134 131 132 139 137 136 135 135 136 138
137 135 131 133 130 130 128 127 126 124 121 120 119 118 118 118 117 117 118 120 121 122 121 120 118 112 102 95 98 109 114 123 121 134 142 142 145 145 144 143 143 143 143
141 144 141 135 132 132 132 135 136 133 130 128 127 126 126 125 125 127 127 129 130 131 130 128 125 119 110 101 93 112 117 118 126 135 139 155 154 152 150 150 150 150 150
149 154 153 150 151 148 150 146 142 140 139 137 137 139 130 114 121 133 144 145 143 144 145 145 142 137 136 117 101 124 119 127 138 143 156 163 163 160 157 157 157 158 159
165 169 167 164 165 164 160 141 148 146 144 146 152 150 137 143 167 161 164 162 161 163 169 178 186 197 249 330 353 66 119 138 139 151 169 169 168 166 164 164 165 165 166
165 165 169 170 171 173 155 157 168 164 164 176 178 176 161 157 172 166 156 176 181 188 207 217 225 244 244 249 264 181 161 156 157 167 173 174 174 173 172 173 173 174 175
150 153 160 163 164 166 158 164 171 178 172 179 182 172 158 155 171 178 190 202 205 220 222 235 233 246 249 239 219 197 168 163 163 166 177 178 180 180 180 179 180 182 185
144 149 155 153 151 149 148 166 168 180 175 177 170 167 160 159 173 184 201 208 209 208 206 218 221 227 230 218 179 163 161 167 164 169 179 182 182 184 186 186 187 189 191
144 150 149 144 142 136 138 151 160 169 171 168 168 169 164 163 168 176 187 196 213 215 204 203 206 198 199 172 146 151 159 166 172 174 180 185 188 189 192 193 195 196 197
149 148 147 147 140 138 142 146 147 164 162 165 172 167 163 164 166 164 169 194 215 213 205 197 198 157 157 138 120 145 157 169 174 181 181 184 192 200 200 201 201 203 202
148 149 157 151 144 145 142 137 128 141 149 164 165 162 165 171 168 155 169 217 229 191 174 173 163 139 141 134 139 210 188 182 185 185 182 186 190 200 209 209 208 208 208
153 152 155 147 152 152 146 138 129 129 138 155 158 169 177 173 174 162 176 215 208 161 175 184 148 151 157 172 204 227 216 206 204 187 184 190 195 199 203 212 214 214 214
154 152 151 151 156 147 133 112 87 85 111 140 161 177 172 172 177 165 175 201 169 148 184 140 143 147 161 173 183 334 293 247 203 193 194 184 189 196 196 209 220 225 222
151 153 154 151 160 144 130 128 127 156 193 210 205 187 178 176 170 157 163 174 164 168 210 195 146 131 162 146 101 14 355 351 91 205 191 174 189 199 188 199 212 224 229
164 164 162 161 163 162 161 164 168 165 188 198 213 181 178 178 178 163 165 183 178 180 243 211 158 154 215 168 145 119 2 357 4 345 25 169 190 201 193 201 199 213 222
173 174 172 167 164 167 166 143 116 86 48 40 45 179 204 182 181 177 166 174 178 168 203 229 200 178 207 239 172 158 163 209 311 352 19 53 91 86 81 83 130 216 216
181 178 170 167 165 169 164 156 159 166 178 205 188 178 180 155 155 151 131 137 140 146 197 247 210 186 175 216 240 205 186 172 168 227 358 20 49 64 73 85 88 57 106
175 174 173 167 168 168 166 168 168 172 183 171 131 125 90 30 62 102 114 108 101 97 292 305 359 163 186 191 196 198 183 175 172 171 221 306 23 29 55 81 82 81 73
168 169 169 171 175 171 169 170 170 171 163 143 136 138 125 43 31 52 88 86 81 63 24 4 19 28 243 189 193 178 172 170 180 162 180 191 203 337 20 34 64 85 83